Weather History for Cancun, Mexico

Change the Weather History Date:

Thursday, January 3, 2013

  Actual Average Record
Temperature  
Mean Temperature 73 °F -  
Max Temperature 82 °F 81 °F 87 °F (2007)
Min Temperature 64 °F 65 °F 57 °F (2012)
Cooling Degree Days 8    
Growing Degree Days 23 (Base 50)    
Moisture  
Dew Point 70 °F    
Average Humidity 85    
Maximum Humidity 100    
Minimum Humidity 66    
Precipitation  
Precipitation 0.00 in - - ()
Sea Level Pressure  
Sea Level Pressure 30.03 in    
Wind  
Wind Speed 4 mph ()    
Max Wind Speed 12 mph    
Max Gust Speed -    
Visibility 7.0 miles    
Events      
Averages and records for this station are not official NWS values.
T = Trace of Precipitation, MM = Missing Value Source: Averaged Metar Reports

Daily Weather History Graph

Daily Weather History Graph

Search for Another Location

Airport:

Trip Planner

Search our weather history database for the weather conditions in past years. The results will help you decide how hot, cold, wet, or windy it might be!

Date:

Astronomy

Jan. 03, 2013 Rise Set
Actual Time 6:25 AM CST 5:19 PM CST
Civil Twilight 6:01 AM CST 5:43 PM CST
Nautical Twilight 5:33 AM CST 6:10 PM CST
Astronomical Twilight 5:06 AM CST 6:37 PM CST
Moon 11:00 PM CST (1/3) 10:25 AM CST (1/3)
Length of Visible Light 11h 41m
Length of Day
10h 53m
Waning Gibbous, 65% of the Moon is Illuminated
Jan 3
Waning Gibbous
Jan 4
Last Quarter
Jan 11
New
Jan 18
First Quarter
Jan 26
Full

Hourly Weather History & Observations

Time (CST) Temp. Heat Index Dew Point Humidity Pressure Visibility Wind Dir Wind Speed Gust Speed Precip Events Conditions
12:42 AM 71.6 °F - 69.8 °F 94% 30.00 in 7.0 mi SE 3.5 mph - N/A   Partly Cloudy
1:44 AM 69.8 °F - 68.0 °F 94% 30.00 in 7.0 mi WNW 3.5 mph - N/A   Partly Cloudy
2:43 AM 68.0 °F - 68.0 °F 100% 29.99 in 7.0 mi NNW 2.3 mph - N/A   Partly Cloudy
3:43 AM 66.2 °F - 66.2 °F 100% 29.99 in 7.0 mi ESE 3.5 mph - N/A   Partly Cloudy
4:40 AM 66.2 °F - 66.2 °F 100% 30.00 in 7.0 mi NW 2.3 mph - N/A   Partly Cloudy
5:45 AM 64.4 °F - 64.4 °F 100% 30.01 in 7.0 mi North 2.3 mph - N/A   Partly Cloudy
6:42 AM 64.4 °F - 64.4 °F 100% 30.03 in 7.0 mi North 2.3 mph - N/A   Scattered Clouds
7:56 AM 69.8 °F - 68.0 °F 94% 30.04 in 7.0 mi Calm Calm - N/A   Partly Cloudy
8:41 AM 77.0 °F - 71.6 °F 83% 30.07 in 7.0 mi Calm Calm - N/A   Partly Cloudy
9:41 AM 80.6 °F 84.6 °F 71.6 °F 74% 30.07 in 7.0 mi SE 8.1 mph - N/A   Scattered Clouds
10:50 AM 82.4 °F 86.3 °F 69.8 °F 66% 30.05 in 7.0 mi ESE 10.4 mph - N/A   Scattered Clouds
11:46 AM 82.4 °F 86.3 °F 69.8 °F 66% 30.03 in 7.0 mi SE 5.8 mph - N/A   Partly Cloudy
12:44 PM 82.4 °F 86.3 °F 69.8 °F 66% 30.00 in 7.0 mi SE 11.5 mph - N/A   Clear
1:44 PM 82.4 °F 87.2 °F 71.6 °F 70% 29.99 in 7.0 mi ESE 9.2 mph - N/A   Clear
2:44 PM 82.4 °F 86.3 °F 69.8 °F 66% 29.99 in 7.0 mi SSE 8.1 mph - N/A   Partly Cloudy
3:43 PM 80.6 °F 83.9 °F 69.8 °F 70% 30.00 in 7.0 mi SE 9.2 mph - N/A   Scattered Clouds
4:45 PM 78.8 °F - 71.6 °F 78% 30.01 in 7.0 mi ESE 5.8 mph - N/A   Scattered Clouds
5:41 PM 75.2 °F - 71.6 °F 89% 30.03 in 7.0 mi East 4.6 mph - N/A   Partly Cloudy
6:44 PM 75.2 °F - 71.6 °F 89% 30.05 in 7.0 mi East 3.5 mph - N/A   Partly Cloudy
7:41 PM 75.2 °F - 71.6 °F 89% 30.07 in 7.0 mi ENE 3.5 mph - N/A   Clear
8:40 PM 75.2 °F - 71.6 °F 89% 30.07 in 7.0 mi ENE 3.5 mph - N/A   Clear
9:48 PM 75.2 °F - 71.6 °F 89% 30.09 in 7.0 mi East 5.8 mph - N/A   Clear
10:47 PM 75.2 °F - 71.6 °F 89% 30.09 in 7.0 mi ENE 5.8 mph - N/A   Clear
11:46 PM 75.2 °F - 71.6 °F 89% 30.05 in 7.0 mi ENE 5.8 mph - N/A   Clear